N411CE HESC-HETR

Flight info

Callsign N411CE
Flight time 0h 35m
Altitude 3500
Route DCT
Aircraft T240/L-SDGRY/S

Departure

Time 2026-05-06 08:58
Airport Saint Catherine International Airport (HESC)

Arrival

Time 2026-05-06 09:34
Airport At Tur Airport (HETR)
Time Latitude Longitude Altitude Speed Heading
2026-05-06 08:53 28.68380 34.06135 4341 ft 0 kts 261°
2026-05-06 08:56 28.68375 34.06136 4342 ft 4 kts 114°
2026-05-06 08:56 28.68344 34.06172 4342 ft 11 kts 129°
2026-05-06 08:56 28.68367 34.06282 4343 ft 17 kts 19°
2026-05-06 08:57 28.68484 34.06272 4340 ft 17 kts 356°
2026-05-06 08:57 28.68520 34.06261 4339 ft 0 kts 168°
2026-05-06 08:57 28.68509 34.06264 4339 ft 14 kts 166°
2026-05-06 08:57 28.68224 34.06316 4344 ft 67 kts 172°
2026-05-06 08:58 28.67641 34.06421 4406 ft 99 kts 172°
2026-05-06 08:58 28.66865 34.06502 4443 ft 132 kts 172°
2026-05-06 08:58 28.65971 34.06623 4832 ft 131 kts 170°
2026-05-06 08:58 28.65060 34.06753 5175 ft 133 kts 171°
2026-05-06 08:59 28.64135 34.06888 5519 ft 135 kts 171°
2026-05-06 08:59 28.63198 34.07033 5816 ft 139 kts 171°
2026-05-06 08:59 28.62235 34.07186 6124 ft 140 kts 172°
2026-05-06 08:59 28.61264 34.07339 6429 ft 141 kts 172°
2026-05-06 09:00 28.60287 34.07495 6709 ft 141 kts 173°
2026-05-06 09:00 28.59316 34.07650 7005 ft 144 kts 174°
2026-05-06 09:00 28.58313 34.07797 7286 ft 146 kts 176°
2026-05-06 09:00 28.57309 34.07939 7487 ft 147 kts 175°
2026-05-06 09:01 28.56262 34.08091 7502 ft 157 kts 176°
2026-05-06 09:01 28.55138 34.08239 7497 ft 166 kts 176°
2026-05-06 09:01 28.53994 34.08376 7497 ft 168 kts 177°
2026-05-06 09:01 28.52823 34.08508 7503 ft 172 kts 176°
2026-05-06 09:02 28.51619 34.08690 7500 ft 177 kts 174°
2026-05-06 09:02 28.50371 34.08889 7490 ft 183 kts 175°
2026-05-06 09:02 28.49117 34.09083 7489 ft 175 kts 175°
2026-05-06 09:02 28.47908 34.09280 7485 ft 181 kts 175°
2026-05-06 09:03 28.46669 34.09478 7485 ft 178 kts 175°
2026-05-06 09:03 28.45469 34.09664 7652 ft 170 kts 175°
2026-05-06 09:03 28.44314 34.09862 7813 ft 166 kts 174°
2026-05-06 09:03 28.43190 34.10061 7964 ft 163 kts 175°
2026-05-06 09:04 28.42077 34.10249 8130 ft 161 kts 175°
2026-05-06 09:04 28.40973 34.10433 8305 ft 161 kts 176°
2026-05-06 09:04 28.39859 34.10596 8481 ft 161 kts 176°
2026-05-06 09:04 28.38722 34.10758 8487 ft 166 kts 176°
2026-05-06 09:05 28.37550 34.10928 8492 ft 172 kts 176°
2026-05-06 09:05 28.36385 34.11103 8491 ft 170 kts 175°
2026-05-06 09:05 28.35203 34.11278 8483 ft 170 kts 177°
2026-05-06 09:05 28.34040 34.11450 8488 ft 167 kts 176°
2026-05-06 09:06 28.32901 34.11610 8476 ft 166 kts 177°
2026-05-06 09:06 28.31755 34.11814 8472 ft 169 kts 165°
2026-05-06 09:06 28.30799 34.12642 8477 ft 178 kts 135°
2026-05-06 09:06 28.29939 34.13695 8483 ft 183 kts 136°
2026-05-06 09:07 28.29047 34.14749 8494 ft 187 kts 136°
2026-05-06 09:07 28.28160 34.15827 8501 ft 187 kts 136°
2026-05-06 09:07 28.27277 34.16893 8501 ft 187 kts 136°
2026-05-06 09:07 28.26383 34.17968 8497 ft 188 kts 137°
2026-05-06 09:08 28.25485 34.19045 8500 ft 188 kts 136°
2026-05-06 09:08 28.24589 34.20114 8501 ft 186 kts 136°
2026-05-06 09:08 28.23686 34.21175 8502 ft 187 kts 136°
2026-05-06 09:08 28.22763 34.22262 8401 ft 194 kts 136°
2026-05-06 09:09 28.21841 34.23386 8287 ft 200 kts 135°
2026-05-06 09:09 28.20854 34.24513 8155 ft 201 kts 137°
2026-05-06 09:09 28.19877 34.25648 8046 ft 202 kts 136°
2026-05-06 09:09 28.18904 34.26782 7923 ft 202 kts 137°
2026-05-06 09:10 28.17927 34.27924 7816 ft 202 kts 136°
2026-05-06 09:10 28.16951 34.29078 7677 ft 202 kts 136°
2026-05-06 09:10 28.15962 34.30227 7558 ft 204 kts 136°
2026-05-06 09:10 28.14980 34.31375 7511 ft 199 kts 136°
2026-05-06 09:11 28.14038 34.32477 7515 ft 195 kts 136°
2026-05-06 09:11 28.13097 34.33579 7509 ft 193 kts 136°
2026-05-06 09:11 28.12172 34.34666 7510 ft 193 kts 136°
2026-05-06 09:11 28.11242 34.35754 7506 ft 191 kts 137°
2026-05-06 09:12 28.10323 34.36835 7507 ft 190 kts 136°
2026-05-06 09:12 28.09407 34.37918 7447 ft 193 kts 136°
2026-05-06 09:12 28.08464 34.39034 7311 ft 198 kts 137°
2026-05-06 09:12 28.07507 34.40168 7173 ft 200 kts 136°
2026-05-06 09:13 28.06558 34.41296 7035 ft 200 kts 137°
2026-05-06 09:13 28.05585 34.42436 6898 ft 202 kts 136°
2026-05-06 09:13 28.04582 34.43562 6753 ft 203 kts 144°
2026-05-06 09:13 28.03304 34.44105 6604 ft 195 kts 178°
2026-05-06 09:14 28.01971 34.44081 6515 ft 192 kts 185°
2026-05-06 09:14 28.00677 34.44051 6515 ft 183 kts 184°
2026-05-06 09:14 27.99425 34.43973 6507 ft 176 kts 196°
2026-05-06 09:14 27.98431 34.43262 6511 ft 168 kts 228°
2026-05-06 09:15 27.97638 34.42295 6518 ft 168 kts 228°
2026-05-06 09:15 27.96824 34.41316 6529 ft 173 kts 227°
2026-05-06 09:15 27.95987 34.40321 6520 ft 174 kts 228°
2026-05-06 09:15 27.95159 34.39334 6519 ft 171 kts 228°
2026-05-06 09:16 27.94350 34.38368 6521 ft 170 kts 228°
2026-05-06 09:16 27.93519 34.37395 6523 ft 174 kts 226°
2026-05-06 09:16 27.92634 34.36462 6526 ft 173 kts 224°
2026-05-06 09:16 27.91732 34.35527 6526 ft 176 kts 224°
2026-05-06 09:17 27.90847 34.34604 6525 ft 174 kts 224°
2026-05-06 09:17 27.89963 34.33679 6515 ft 172 kts 225°
2026-05-06 09:17 27.89088 34.32762 6512 ft 170 kts 224°
2026-05-06 09:17 27.88225 34.31858 6514 ft 172 kts 225°
2026-05-06 09:18 27.87343 34.30934 6508 ft 171 kts 224°
2026-05-06 09:18 27.86470 34.30030 6510 ft 171 kts 224°
2026-05-06 09:18 27.85591 34.29114 6512 ft 172 kts 224°
2026-05-06 09:18 27.84752 34.28154 6498 ft 171 kts 238°
2026-05-06 09:19 27.84538 34.26892 6505 ft 170 kts 278°
2026-05-06 09:19 27.84819 34.25590 6507 ft 170 kts 283°
2026-05-06 09:19 27.85091 34.24287 6502 ft 169 kts 282°
2026-05-06 09:19 27.85356 34.22994 6513 ft 169 kts 282°
2026-05-06 09:20 27.85629 34.21698 6507 ft 170 kts 282°
2026-05-06 09:20 27.85901 34.20410 6505 ft 170 kts 282°
2026-05-06 09:20 27.86179 34.19109 6517 ft 172 kts 282°
2026-05-06 09:20 27.86452 34.17793 6511 ft 171 kts 282°
2026-05-06 09:21 27.86727 34.16490 6507 ft 171 kts 282°
2026-05-06 09:21 27.86995 34.15174 6503 ft 170 kts 282°
2026-05-06 09:21 27.87275 34.13867 6502 ft 169 kts 286°
2026-05-06 09:21 27.87863 34.12725 6496 ft 169 kts 304°
2026-05-06 09:22 27.88541 34.11672 6491 ft 167 kts 303°
2026-05-06 09:22 27.89215 34.10602 6494 ft 167 kts 303°
2026-05-06 09:22 27.89960 34.09586 6498 ft 169 kts 310°
2026-05-06 09:22 27.90740 34.08581 6494 ft 169 kts 308°
2026-05-06 09:23 27.91498 34.07567 6502 ft 168 kts 309°
2026-05-06 09:23 27.92261 34.06558 6500 ft 169 kts 309°
2026-05-06 09:23 27.93020 34.05563 6501 ft 169 kts 309°
2026-05-06 09:23 27.93789 34.04547 6490 ft 169 kts 309°
2026-05-06 09:24 27.94543 34.03551 6502 ft 167 kts 309°
2026-05-06 09:24 27.95314 34.02553 6504 ft 169 kts 309°
2026-05-06 09:24 27.96070 34.01552 6502 ft 169 kts 309°
2026-05-06 09:24 27.96840 34.00543 6506 ft 169 kts 310°
2026-05-06 09:25 27.97615 33.99529 6504 ft 170 kts 310°
2026-05-06 09:25 27.98387 33.98512 6498 ft 170 kts 310°
2026-05-06 09:25 27.99158 33.97505 6503 ft 169 kts 310°
2026-05-06 09:25 27.99918 33.96504 6491 ft 171 kts 310°
2026-05-06 09:26 28.00708 33.95458 6319 ft 178 kts 309°
2026-05-06 09:26 28.01529 33.94366 6085 ft 186 kts 310°
2026-05-06 09:26 28.02391 33.93242 5836 ft 190 kts 310°
2026-05-06 09:26 28.03259 33.92102 5593 ft 192 kts 310°
2026-05-06 09:27 28.04127 33.90959 5343 ft 194 kts 311°
2026-05-06 09:27 28.05009 33.89797 5102 ft 195 kts 311°
2026-05-06 09:27 28.05897 33.88625 4852 ft 196 kts 311°
2026-05-06 09:27 28.06793 33.87445 4590 ft 197 kts 311°
2026-05-06 09:28 28.07679 33.86281 4333 ft 197 kts 311°
2026-05-06 09:28 28.08571 33.85102 4075 ft 194 kts 311°
2026-05-06 09:28 28.09433 33.83965 3827 ft 187 kts 310°
2026-05-06 09:28 28.10269 33.82861 3592 ft 183 kts 310°
2026-05-06 09:29 28.11100 33.81762 3358 ft 182 kts 310°
2026-05-06 09:29 28.11914 33.80690 3125 ft 181 kts 311°
2026-05-06 09:29 28.12731 33.79613 2889 ft 180 kts 310°
2026-05-06 09:29 28.13535 33.78541 2654 ft 177 kts 310°
2026-05-06 09:30 28.14341 33.77486 2418 ft 175 kts 311°
2026-05-06 09:30 28.15125 33.76457 2194 ft 169 kts 309°
2026-05-06 09:30 28.15859 33.75474 1979 ft 162 kts 311°
2026-05-06 09:30 28.16574 33.74529 1775 ft 156 kts 311°
2026-05-06 09:31 28.17284 33.73596 1566 ft 156 kts 310°
2026-05-06 09:31 28.17980 33.72678 1362 ft 148 kts 310°
2026-05-06 09:31 28.18630 33.71818 1174 ft 140 kts 310°
2026-05-06 09:31 28.19253 33.70987 990 ft 136 kts 307°
2026-05-06 09:32 28.19568 33.70403 876 ft 126 kts 292°
2026-05-06 09:32 28.19827 33.69307 690 ft 92 kts 288°
2026-05-06 09:32 28.19987 33.68615 574 ft 90 kts 288°
2026-05-06 09:32 28.20141 33.67930 459 ft 88 kts 287°
2026-05-06 09:33 28.20242 33.67481 385 ft 85 kts 287°
2026-05-06 09:33 28.20388 33.66837 275 ft 85 kts 286°
2026-05-06 09:33 28.20527 33.66192 177 ft 82 kts 287°
2026-05-06 09:33 28.20671 33.65572 113 ft 80 kts 288°
2026-05-06 09:34 28.20801 33.64998 88 ft 70 kts 288°
2026-05-06 09:34 28.20911 33.64513 65 ft 56 kts 284°
2026-05-06 09:34 28.21009 33.64200 61 ft 33 kts 304°
2026-05-06 09:34 28.21142 33.64020 53 ft 27 kts 316°
2026-05-06 09:35 28.21227 33.63860 48 ft 22 kts 284°
2026-05-06 09:35 28.21264 33.63708 43 ft 19 kts 286°
2026-05-06 09:35 28.21357 33.63645 41 ft 17 kts 13°
2026-05-06 09:35 28.21442 33.63697 42 ft 7 kts 84°
2026-05-06 09:36 28.21440 33.63705 42 ft 0 kts 105°